Time,TemperatureF,DewpointF,PressureIn,WindDirection,WindDirectionDegrees,WindSpeedMPH,WindSpeedGustMPH,Humidity,HourlyPrecipIn,Conditions,Clouds,dailyrainin,SoftwareType,DateUTC
2013-03-10 00:04:00,29.1,22.5,30.15,NE,45,0.0,-999.0,76,-99.99,,,0.00,Acu-Link.com,2013-03-10 05:04:00,
2013-03-10 00:20:00,28.9,22.6,30.15,ENE,67,0.0,-999.0,77,-99.99,,,0.00,Acu-Link.com,2013-03-10 05:20:00,
2013-03-10 00:35:00,28.8,22.5,30.15,NE,45,0.0,-999.0,77,-99.99,,,0.00,Acu-Link.com,2013-03-10 05:35:00,
2013-03-10 00:50:00,28.6,22.9,30.16,NNE,22,0.0,-999.0,79,-99.99,,,0.00,Acu-Link.com,2013-03-10 05:50:00,
2013-03-10 01:05:00,28.2,22.5,30.16,NE,45,0.0,-999.0,79,-99.99,,,0.00,Acu-Link.com,2013-03-10 06:05:00,
2013-03-10 01:20:00,28.0,22.9,30.17,NNE,22,0.0,-999.0,81,-99.99,,,0.00,Acu-Link.com,2013-03-10 06:20:00,
2013-03-10 01:35:00,27.9,22.8,30.16,NE,45,1.7,-999.0,81,-99.99,,,0.00,Acu-Link.com,2013-03-10 06:35:00,
2013-03-10 01:50:00,27.9,22.5,30.16,NNE,22,0.0,-999.0,80,-99.99,,,0.00,Acu-Link.com,2013-03-10 06:50:00,
2013-03-10 03:05:00,27.5,22.4,30.16,NE,45,0.0,-999.0,81,-99.99,,,0.00,Acu-Link.com,2013-03-10 07:05:00,
2013-03-10 03:20:00,27.3,22.3,30.15,NE,45,0.0,-999.0,81,-99.99,,,0.00,Acu-Link.com,2013-03-10 07:20:00,
2013-03-10 03:36:00,27.1,22.1,30.14,NNE,22,0.0,-999.0,81,-99.99,,,0.00,Acu-Link.com,2013-03-10 07:36:00,
2013-03-10 03:51:00,27.1,22.1,30.14,East,90,0.0,-999.0,81,-99.99,,,0.00,Acu-Link.com,2013-03-10 07:51:00,
2013-03-10 04:06:00,26.8,22.1,30.13,NNE,22,0.0,-999.0,82,-99.99,,,0.00,Acu-Link.com,2013-03-10 08:06:00,
2013-03-10 04:21:00,26.6,22.1,30.14,NE,45,0.0,-999.0,83,-99.99,,,0.00,Acu-Link.com,2013-03-10 08:21:00,
2013-03-10 04:36:00,26.6,22.4,30.14,NE,45,0.0,-999.0,84,-99.99,,,0.00,Acu-Link.com,2013-03-10 08:36:00,
2013-03-10 04:51:00,26.2,22.3,30.14,ESE,112,0.0,-999.0,85,-99.99,,,0.00,Acu-Link.com,2013-03-10 08:51:00,
2013-03-10 05:06:00,26.2,22.0,30.13,NE,45,0.0,-999.0,84,-99.99,,,0.00,Acu-Link.com,2013-03-10 09:06:00,
2013-03-10 05:22:00,26.4,22.8,30.14,East,90,0.0,-999.0,86,-99.99,,,0.00,Acu-Link.com,2013-03-10 09:22:00,
2013-03-10 05:37:00,26.8,23.2,30.14,ENE,67,0.0,-999.0,86,-99.99,,,0.00,Acu-Link.com,2013-03-10 09:37:00,
2013-03-10 05:52:00,27.5,23.6,30.15,WNW,292,0.0,-999.0,85,-99.99,,,0.00,Acu-Link.com,2013-03-10 09:52:00,
2013-03-10 06:07:00,28.0,23.8,30.15,ENE,67,0.0,-999.0,84,-99.99,,,0.00,Acu-Link.com,2013-03-10 10:07:00,
2013-03-10 06:22:00,28.6,24.4,30.15,ENE,67,0.0,-999.0,84,-99.99,,,0.00,Acu-Link.com,2013-03-10 10:22:00,
2013-03-10 06:37:00,28.8,24.3,30.15,West,270,0.0,-999.0,83,-99.99,,,0.00,Acu-Link.com,2013-03-10 10:37:00,
2013-03-10 06:52:00,29.1,24.3,30.15,NE,45,0.0,-999.0,82,-99.99,,,0.00,Acu-Link.com,2013-03-10 10:52:00,
2013-03-10 07:07:00,29.3,24.5,30.14,SSE,157,0.0,-999.0,82,-99.99,,,0.00,Acu-Link.com,2013-03-10 11:07:00,
2013-03-10 07:22:00,29.7,24.3,30.14,SSW,202,0.0,-999.0,80,-99.99,,,0.00,Acu-Link.com,2013-03-10 11:22:00,
2013-03-10 07:38:00,30.0,24.3,30.13,SE,135,0.0,-999.0,79,-99.99,,,0.00,Acu-Link.com,2013-03-10 11:38:00,
2013-03-10 07:53:00,30.4,25.0,30.14,SSE,157,0.0,-999.0,80,-99.99,,,0.00,Acu-Link.com,2013-03-10 11:53:00,
2013-03-10 08:08:00,30.7,25.0,30.14,WNW,292,1.7,-999.0,79,-99.99,,,0.00,Acu-Link.com,2013-03-10 12:08:00,
2013-03-10 08:23:00,31.1,25.4,30.14,SSE,157,0.0,-999.0,79,-99.99,,,0.00,Acu-Link.com,2013-03-10 12:23:00,
2013-03-10 08:38:00,31.5,25.1,30.14,South,180,1.7,-999.0,77,-99.99,,,0.00,Acu-Link.com,2013-03-10 12:38:00,
2013-03-10 08:53:00,32.2,25.8,30.14,WNW,292,0.0,-999.0,77,-99.99,,,0.00,Acu-Link.com,2013-03-10 12:53:00,
2013-03-10 09:08:00,32.7,26.3,30.14,South,180,0.0,-999.0,77,-99.99,,,0.00,Acu-Link.com,2013-03-10 13:08:00,
2013-03-10 09:23:00,33.8,27.1,30.15,West,270,0.0,-999.0,76,-99.99,,,0.00,Acu-Link.com,2013-03-10 13:23:00,
2013-03-10 09:38:00,35.4,27.3,30.14,WSW,247,1.1,-999.0,72,-99.99,,,0.00,Acu-Link.com,2013-03-10 13:38:00,
2013-03-10 09:54:00,36.5,27.7,30.14,SSE,157,0.0,-999.0,70,-99.99,,,0.00,Acu-Link.com,2013-03-10 13:54:00,
2013-03-10 10:09:00,37.2,27.6,30.14,SW,225,1.7,-999.0,68,-99.99,,,0.00,Acu-Link.com,2013-03-10 14:09:00,
2013-03-10 10:24:00,40.6,29.0,30.14,South,180,0.0,-999.0,63,-99.99,,,0.00,Acu-Link.com,2013-03-10 14:24:00,
2013-03-10 10:39:00,42.6,29.7,30.13,South,180,2.2,-999.0,60,-99.99,,,0.00,Acu-Link.com,2013-03-10 14:39:00,
2013-03-10 10:54:00,45.5,30.7,30.13,WSW,247,0.0,-999.0,56,-99.99,,,0.00,Acu-Link.com,2013-03-10 14:54:00,
2013-03-10 11:09:00,48.4,28.6,30.13,WSW,247,3.2,-999.0,46,-99.99,,,0.00,Acu-Link.com,2013-03-10 15:09:00,
2013-03-10 11:24:00,48.9,28.0,30.13,WSW,247,1.7,-999.0,44,-99.99,,,0.00,Acu-Link.com,2013-03-10 15:24:00,
2013-03-10 11:39:00,50.5,27.1,30.12,West,270,1.7,-999.0,40,-99.99,,,0.00,Acu-Link.com,2013-03-10 15:39:00,
2013-03-10 11:54:00,54.5,28.1,30.12,South,180,1.7,-999.0,36,-99.99,,,0.00,Acu-Link.com,2013-03-10 15:54:00,
2013-03-10 12:10:00,54.5,25.3,30.11,ESE,112,3.7,-999.0,32,-99.99,,,0.00,Acu-Link.com,2013-03-10 16:10:00,
2013-03-10 12:25:00,57.4,26.2,30.10,South,180,4.2,-999.0,30,-99.99,,,0.00,Acu-Link.com,2013-03-10 16:25:00,
2013-03-10 12:40:00,57.2,25.2,30.10,SSE,157,3.2,-999.0,29,-99.99,,,0.00,Acu-Link.com,2013-03-10 16:40:00,
2013-03-10 12:55:00,56.3,23.6,30.09,SSE,157,3.7,-999.0,28,-99.99,,,0.00,Acu-Link.com,2013-03-10 16:55:00,
2013-03-10 13:10:00,58.1,24.3,30.08,SSE,157,4.2,-999.0,27,-99.99,,,0.00,Acu-Link.com,2013-03-10 17:10:00,
2013-03-10 13:25:00,58.8,24.9,30.07,South,180,3.7,-999.0,27,-99.99,,,0.00,Acu-Link.com,2013-03-10 17:25:00,
2013-03-10 13:40:00,58.8,24.9,30.06,SSE,157,4.2,-999.0,27,-99.99,,,0.00,Acu-Link.com,2013-03-10 17:40:00,
2013-03-10 13:55:00,59.7,24.8,30.04,NE,45,6.3,-999.0,26,-99.99,,,0.00,Acu-Link.com,2013-03-10 17:55:00,
2013-03-10 14:10:00,61.3,25.2,30.03,South,180,5.8,-999.0,25,-99.99,,,0.00,Acu-Link.com,2013-03-10 18:10:00,
2013-03-10 14:26:00,59.9,24.9,30.02,SSE,157,3.7,-999.0,26,-99.99,,,0.00,Acu-Link.com,2013-03-10 18:26:00,
2013-03-10 14:41:00,59.2,25.2,30.02,ESE,112,3.2,-999.0,27,-99.99,,,0.00,Acu-Link.com,2013-03-10 18:41:00,
2013-03-10 14:56:00,59.9,24.9,30.01,West,270,3.2,-999.0,26,-99.99,,,0.00,Acu-Link.com,2013-03-10 18:56:00,
2013-03-10 15:11:00,59.9,25.8,30.01,East,90,3.7,-999.0,27,-99.99,,,0.00,Acu-Link.com,2013-03-10 19:11:00,
2013-03-10 15:26:00,60.1,26.0,30.00,SSE,157,3.2,-999.0,27,-99.99,,,0.00,Acu-Link.com,2013-03-10 19:26:00,
2013-03-10 15:41:00,61.9,25.7,29.99,SSE,157,4.7,-999.0,25,-99.99,,,0.00,Acu-Link.com,2013-03-10 19:41:00,
2013-03-10 16:26:00,63.7,26.2,29.97,East,90,3.2,-999.0,24,-99.99,,,0.00,Acu-Link.com,2013-03-10 20:26:00,
2013-03-10 16:42:00,62.8,26.5,29.96,SSE,157,3.7,-999.0,25,-99.99,,,0.00,Acu-Link.com,2013-03-10 20:42:00,
2013-03-10 16:57:00,62.2,26.9,29.96,ESE,112,5.8,-999.0,26,-99.99,,,0.00,Acu-Link.com,2013-03-10 20:57:00,
2013-03-10 17:12:00,63.0,26.6,29.95,South,180,2.7,-999.0,25,-99.99,,,0.00,Acu-Link.com,2013-03-10 21:12:00,
2013-03-10 17:42:00,63.7,27.2,29.95,SSE,157,6.8,-999.0,25,-99.99,,,0.00,Acu-Link.com,2013-03-10 21:42:00,
2013-03-10 17:57:00,61.5,27.2,29.95,SSE,157,2.7,-999.0,27,-99.99,,,0.00,Acu-Link.com,2013-03-10 21:57:00,
2013-03-10 18:12:00,60.4,27.2,29.95,SSE,157,4.7,-999.0,28,-99.99,,,0.00,Acu-Link.com,2013-03-10 22:12:00,
2013-03-10 18:27:00,59.5,28.0,29.94,ESE,112,2.2,-999.0,30,-99.99,,,0.00,Acu-Link.com,2013-03-10 22:27:00,
2013-03-10 18:42:00,59.2,27.0,29.96,ESE,112,5.3,-999.0,29,-99.99,,,0.00,Acu-Link.com,2013-03-10 22:42:00,
2013-03-10 18:58:00,58.6,26.4,29.96,SE,135,2.7,-999.0,29,-99.99,,,0.00,Acu-Link.com,2013-03-10 22:58:00,
2013-03-10 19:13:00,58.1,26.0,29.96,ESE,112,3.2,-999.0,29,-99.99,,,0.00,Acu-Link.com,2013-03-10 23:13:00,
2013-03-10 19:28:00,56.1,26.7,29.95,South,180,5.8,-999.0,32,-99.99,,,0.00,Acu-Link.com,2013-03-10 23:28:00,
2013-03-10 19:43:00,56.8,26.5,29.96,East,90,2.7,-999.0,31,-99.99,,,0.00,Acu-Link.com,2013-03-10 23:43:00,
2013-03-10 19:58:00,56.8,26.5,29.96,SSE,157,4.7,-999.0,31,-99.99,,,0.00,Acu-Link.com,2013-03-10 23:58:00,
2013-03-10 20:13:00,55.2,26.6,29.95,ESE,112,2.2,-999.0,33,-99.99,,,0.00,Acu-Link.com,2013-03-11 00:13:00,
2013-03-10 20:28:00,55.8,26.4,29.97,SSE,157,2.7,-999.0,32,-99.99,,,0.00,Acu-Link.com,2013-03-11 00:28:00,
2013-03-10 20:43:00,55.4,26.0,29.98,ESE,112,3.2,-999.0,32,-99.99,,,0.00,Acu-Link.com,2013-03-11 00:43:00,
2013-03-10 20:58:00,55.4,26.0,29.98,ESE,112,5.3,-999.0,32,-99.99,,,0.00,Acu-Link.com,2013-03-11 00:58:00,
2013-03-10 21:14:00,53.6,25.9,29.98,SSE,157,4.2,-999.0,34,-99.99,,,0.00,Acu-Link.com,2013-03-11 01:14:00,
2013-03-10 21:29:00,52.9,26.7,29.99,SE,135,4.7,-999.0,36,-99.99,,,0.00,Acu-Link.com,2013-03-11 01:29:00,
2013-03-10 21:44:00,52.9,26.7,29.99,ESE,112,4.2,-999.0,36,-99.99,,,0.00,Acu-Link.com,2013-03-11 01:44:00,
2013-03-10 21:59:00,52.2,26.7,30.01,SSE,157,2.7,-999.0,37,-99.99,,,0.00,Acu-Link.com,2013-03-11 01:59:00,
2013-03-10 22:14:00,51.4,26.7,30.01,East,90,0.0,-999.0,38,-99.99,,,0.00,Acu-Link.com,2013-03-11 02:14:00,
2013-03-10 22:29:00,52.0,25.9,30.00,ESE,112,2.2,-999.0,36,-99.99,,,0.00,Acu-Link.com,2013-03-11 02:29:00,
2013-03-10 22:44:00,50.7,27.3,30.01,SW,225,0.0,-999.0,40,-99.99,,,0.00,Acu-Link.com,2013-03-11 02:44:00,
2013-03-10 22:59:00,50.9,25.6,30.01,SSE,157,3.7,-999.0,37,-99.99,,,0.00,Acu-Link.com,2013-03-11 02:59:00,
2013-03-10 23:14:00,51.4,24.0,30.00,ESE,112,4.2,-999.0,34,-99.99,,,0.00,Acu-Link.com,2013-03-11 03:14:00,
2013-03-10 23:30:00,51.3,23.2,30.00,ESE,112,4.2,-999.0,33,-99.99,,,0.00,Acu-Link.com,2013-03-11 03:30:00,
2013-03-10 23:45:00,50.5,23.2,30.00,SE,135,3.7,-999.0,34,-99.99,,,0.00,Acu-Link.com,2013-03-11 03:45:00,